Regional Weather Roundup
Issued by NWS Charleston, WV

Home | Current Version | Previous Version | Graphics & Text | Print | Product List | Glossary On
Versions: 1 2 3 4 5 6 7 8 9 10 11 12 13 14 15 16 17 18 19 20 21 22 23 24 25 26 27 28
000
ASUS41 KRLX 160010
RWRRLX
West Virginia Regional Weather Roundup
National Weather Service Charleston WV
700 PM EST MON JAN 15 2018

Note: "fair" indicates few or no clouds below 12,000 feet with no
significant weather and/or obstructions to visibility.

WVZ003-160100-
Northern Panhandle of West Virginia

CITY           SKY/WX    TMP DP  RH WIND       PRES   REMARKS
WHEELING       CLOUDY    26  23  88 SE6       30.28S
$$

WVZ009-160100-
Northwest West Virginia

CITY           SKY/WX    TMP DP  RH WIND       PRES   REMARKS
PARKERSBURG    CLOUDY    31  20  63 CALM      30.31S
$$

WVZ006-160100-
Western West Virginia

CITY           SKY/WX    TMP DP  RH WIND       PRES   REMARKS
HUNTINGTON     MOCLDY    38  22  52 SW6       30.29R
$$

WVZ015-160100-
West Central West Virginia

CITY           SKY/WX    TMP DP  RH WIND       PRES   REMARKS
CHARLESTON     MOCLDY    36  22  56 SW6       30.28R
$$

WVZ022-031-160100-
North Central West Virginia

CITY           SKY/WX    TMP DP  RH WIND       PRES   REMARKS
CLARKSBURG     CLOUDY    35  21  56 NW3       30.28S
MORGANTOWN     CLOUDY    33  21  61 CALM      30.30R
$$

WVZ025-035-042-045-160100-
Southern West Virginia

CITY           SKY/WX    TMP DP  RH WIND       PRES   REMARKS
BECKLEY        CLOUDY    33  21  61 S12       30.27R
LOGAN            N/A     36  21  55 S6G13     30.27S
BLUEFIELD        N/A     30  21  69 SW6       30.28R
LEWISBURG        N/A     29  19  64 CALM      30.31R
$$

WVZ047-160100-
Northern Mountains of West Virginia

CITY           SKY/WX    TMP DP  RH WIND       PRES   REMARKS
ELKINS         CLOUDY    32  19  58 S6        30.27S
$$

WVZ052-160100-
Eastern Panhandle of West Virginia

CITY           SKY/WX    TMP DP  RH WIND       PRES   REMARKS
MARTINSBURG    MOCLDY    25  17  72 CALM      30.44F
PETERSBURG       N/A     22  15  73 W3        30.41R
$$




USA.gov is the U.S. government's official web portal to all federal, state and local government web resources and services.